Location: Recife
(8.0585°S, 34.8848°W)
Time: 20:36:17
(UTC-03:00)

A-11 Canister half - Pass Details

Date: 20 April 2026
Orbit: 1515 x 1684 km, 47.2° (Epoch: 16 May)

Event Time Altitude Azimuth Distance (km) Brightness Sun altitude
Rises 12:45:41 0° 322° (NW) 4,862 12.1 60.7°
Reaches altitude 10° 12:48:47 10° 322° (NW) 3,895 11.8 60.1°
Maximum altitude 12:58:51 86° 50° (NE) 1,686 10.4 58.2°
Drops below altitude 10° 13:09:05 10° 138° (SE) 3,947 10.9 56.1°
Sets 13:12:15 0° 138° (SE) 4,930 11.3 55.5°
